Torna al catalogo

CZ-4 DEB

AttivoSSO
NORAD 26203·DEBRIS·🇨🇳 China

Lanciato Oct 14, 1999 da Taiyuan Satellite Launch Center

Loading…

Prossimi Passaggi (prossime 24 ore)

TLE

AggiornatoSource: Space-Track

Epoca: Sep 14, 2026, 08:04 UTC

1 26203U 99057CR  26257.33624324  .00000285  00000-0  11036-3 0  9991
2 26203  98.3550  27.6588 0108816  57.5051 331.4026 14.33769620381730

Traccia CZ-4 DEB in tempo reale con AllMySat

Download on the App Store